RH
9 8 7 8 24 16 12 16 20 22 26 37 49 56 52 45 57 60 27 20 24 27 27 41 37 16 16 20 22 24 28 31 33 32 33 27 23 22 24 25 25 24 24 24 23 21 19 18 19
9 8 7 26 21 10 10 15 19 21 26 40 40 42 48 62 28 20 17 17 19 25 26 42 43 23 16 18 22 24 28 30 32 36 35 28 22 22 24 24 25 26 25 25 25 25 23 20 18
9 8 28 19 13 10 12 16 18 21 25 32 40 43 51 61 36 24 18 17 17 28 33 38 50 33 17 19 21 25 30 36 36 39 40 35 24 23 25 23 25 26 26 26 26 26 26 25 21
13 14 21 20 12 15 16 18 25 25 28 18 31 50 42 44 38 22 18 18 18 31 37 46 49 41 26 18 21 25 44 57 39 43 42 43 37 26 26 26 24 25 26 27 27 28 28 28 26
20 29 22 15 14 17 18 22 28 32 33 28 41 55 60 45 32 20 20 19 29 39 43 42 47 43 24 20 21 24 37 42 38 38 40 45 47 44 30 28 28 26 25 27 27 29 30 31 30
31 26 20 14 14 18 20 23 28 37 48 50 43 53 67 48 23 19 22 22 33 37 45 44 38 34 23 22 24 27 29 33 31 37 38 49 52 52 52 35 30 28 25 26 27 29 31 33 32
33 26 20 17 16 18 21 23 24 30 36 48 58 42 62 29 20 20 20 22 33 43 36 41 50 44 28 24 25 26 27 30 35 47 51 43 52 49 52 58 46 30 27 24 26 28 30 33 34
28 23 19 18 17 17 21 22 23 21 37 42 40 43 76 44 19 22 22 21 30 40 32 37 39 54 56 54 48 42 35 31 31 43 52 43 42 40 46 53 63 52 30 26 26 27 30 34 37
27 23 16 16 18 18 22 22 23 25 25 38 43 37 40 22 23 23 23 25 28 38 35 38 36 41 50 54 54 64 68 63 40 33 36 38 38 38 40 45 60 64 55 33 26 26 29 34 40
27 21 18 20 20 21 22 23 22 23 21 28 38 46 29 23 21 22 20 23 28 36 37 39 40 41 45 45 36 40 40 58 78 53 39 40 37 41 39 49 50 59 70 46 54 29 28 34 42
27 24 22 23 23 24 24 24 24 24 22 22 23 24 39 29 23 22 21 24 31 35 38 40 39 35 41 44 43 37 35 34 48 70 59 44 42 40 42 46 54 55 67 74 40 26 27 34 44
30 27 28 27 28 29 29 28 27 24 23 24 24 27 31 34 22 23 20 22 23 26 40 35 27 25 27 32 38 37 37 36 34 45 51 47 42 43 47 51 55 58 66 69 65 31 28 34 45
34 30 30 31 31 31 32 31 31 28 28 26 21 20 21 38 35 24 25 23 24 26 28 25 26 26 24 24 29 34 38 38 35 37 44 44 42 40 46 50 55 59 67 74 60 29 30 35 48
32 37 33 32 32 32 32 28 29 26 27 30 23 23 34 40 51 60 25 26 26 25 26 26 27 28 27 26 26 25 24 24 28 35 37 40 43 45 52 57 61 63 71 77 72 43 31 36 50
37 36 32 28 28 31 33 28 26 28 36 32 33 42 36 33 33 29 43 26 27 27 26 28 28 30 30 29 29 28 27 26 25 26 30 40 45 51 49 44 51 82 78 85 67 43 33 39 54
37 32 28 26 30 31 31 23 22 30 32 30 29 31 38 43 48 58 53 29 27 27 30 28 30 32 31 32 32 31 30 30 29 28 27 30 36 42 44 44 60 87 76 87 79 40 35 46 55
30 26 22 21 29 30 32 26 26 29 33 31 33 31 32 35 41 55 29 28 28 28 28 31 28 32 34 37 37 37 36 34 34 33 31 32 37 42 44 48 70 92 99 91 59 38 40 50 44
26 24 22 21 26 33 31 30 29 28 28 29 32 30 34 34 40 36 31 30 29 29 28 29 30 36 38 42 47 50 52 46 43 42 40 39 41 47 49 59 94 82 98 77 48 42 49 52 35
30 28 24 22 23 28 30 28 27 26 27 28 29 29 31 38 47 29 27 26 23 21 20 18 19 19 22 27 28 43 54 59 63 56 55 50 45 52 61 67 84 94 92 76 56 51 58 43 32
32 29 26 25 26 32 30 26 25 25 24 25 27 30 38 42 47 14 13 13 19 25 26 26 26 26 25 25 26 27 26 27 66 81 73 66 63 63 66 73 76 99 91 73 61 62 48 37 33
30 28 30 31 29 28 25 22 20 24 25 26 29 36 47 33 24 18 21 21 21 20 20 20 19 18 19 21 21 20 23 32 64 68 76 89 81 82 84 78 86 100 98 83 70 61 40 37 35
32 28 32 29 28 27 25 23 22 21 22 28 45 55 37 18 20 22 23 21 20 21 22 21 21 24 24 24 26 24 22 23 23 83 87 88 93 96 95 96 97 93 100 89 76 55 43 41 41
31 30 32 30 30 29 27 25 21 20 20 22 48 51 19 18 21 22 22 22 24 23 25 28 28 25 23 25 26 32 34 30 28 35 97 99 92 99 99 96 100 99 98 84 63 53 51 48 48
31 32 31 30 28 26 24 21 18 18 19 24 53 58 20 22 22 24 25 30 33 31 34 36 35 34 32 26 22 23 31 30 45 48 91 100 100 100 100 99 100 100 99 96 89 83 69 58 59
33 34 31 30 27 26 22 22 21 20 26 29 46 61 28 30 28 35 38 40 38 39 38 38 36 35 34 37 38 32 28 32 39 52 98 99 99 100 100 100 100 97 99 99 98 93 96 96 85
33 32 32 38 34 26 25 24 22 26 28 29 30 46 34 53 57 61 64 63 58 53 47 44 39 36 35 39 48 54 49 44 47 59 91 83 81 97 98 99 98 98 98 99 98 96 96 96 95
35 34 34 33 32 32 29 26 24 32 49 54 58 47 62 65 66 67 62 61 64 66 75 82 36 36 38 46 59 67 46 41 38 46 80 97 100 100 100 99 98 99 98 98 98 96 96 95 72
36 36 35 36 42 40 27 25 25 39 44 60 73 75 72 70 62 58 56 58 64 71 73 87 49 44 48 64 68 79 76 64 57 57 92 99 98 98 98 96 97 97 97 97 97 96 92 94 96
38 37 36 35 35 38 40 33 41 45 50 54 60 65 59 53 52 56 58 64 68 69 76 36 68 77 66 58 67 85 98 98 92 77 88 100 97 99 97 97 97 97 97 97 96 94 96 93 85
40 37 36 38 37 37 38 48 42 48 52 56 56 52 53 48 53 54 58 66 73 55 38 29 44 88 83 55 69 73 64 76 97 96 98 92 98 98 98 96 97 97 98 96 94 89 92 92 90
Wind_Speed
4 2 2 4 3 6 15 4 2 1 1 1 1 3 1 3 2 5 9 8 13 15 11 15 19 22 20 17 15 12 10 8 7 9 7 5 4 3 1 1 1 2 3 4 6 5 4 3 4
1 4 6 4 5 16 9 2 3 2 3 3 3 4 3 2 4 4 8 8 10 13 12 14 20 21 21 18 16 14 12 9 8 9 9 6 6 5 4 3 2 1 2 3 4 4 4 5 4
4 6 9 3 6 10 12 2 4 5 4 3 2 3 3 3 4 7 9 11 10 11 11 11 18 20 20 18 16 16 12 12 10 10 9 9 7 6 7 6 5 4 3 2 2 4 5 6 5
7 6 2 3 4 1 1 3 4 3 4 4 7 3 3 3 6 9 9 12 10 9 10 7 13 18 19 17 17 17 10 23 13 12 11 11 10 10 11 9 8 7 6 5 4 4 4 5 6
5 1 5 6 3 1 0 2 2 2 1 4 7 5 5 5 7 8 9 12 9 9 7 3 7 14 16 17 17 19 17 16 12 12 15 14 14 13 13 12 11 10 10 8 7 6 6 5 6
3 3 7 6 3 3 2 1 2 1 1 4 3 4 6 7 7 6 9 11 7 9 7 4 5 13 18 19 20 21 20 15 14 18 19 16 16 15 15 14 13 13 13 12 11 9 8 8 7
4 7 9 6 4 6 5 1 3 2 2 4 6 4 8 9 6 8 9 10 8 9 9 7 7 9 15 19 21 22 21 19 19 20 21 19 18 18 18 17 16 16 16 15 14 12 11 10 9
7 8 8 6 4 3 6 3 5 4 1 10 4 2 2 9 8 11 10 9 7 7 9 9 9 11 13 17 20 22 22 22 23 23 22 22 21 21 21 21 18 18 18 18 17 15 14 13 12
7 8 10 5 6 3 6 6 7 9 9 7 8 5 13 12 12 13 13 11 9 9 10 10 10 12 14 17 19 22 24 23 24 26 26 25 25 24 24 21 20 20 20 19 19 19 17 15 14
7 9 8 6 6 6 7 6 8 9 8 9 11 13 16 16 14 11 11 11 12 12 12 13 14 14 17 19 17 17 16 19 25 27 27 28 28 27 26 23 24 23 23 22 21 23 20 18 16
6 12 9 7 9 9 9 11 11 11 11 11 11 12 19 19 13 12 11 11 12 14 15 15 15 14 17 19 18 18 19 21 23 25 29 29 29 28 28 26 26 25 25 25 26 22 21 20 18
11 12 13 11 11 9 10 12 14 14 15 15 15 16 15 21 17 15 13 13 14 15 16 16 18 18 19 18 18 19 21 21 21 23 27 29 31 30 30 29 28 27 27 25 27 27 25 21 20
14 13 14 13 13 13 14 16 17 15 15 16 16 18 18 18 18 16 14 14 17 17 18 17 15 13 16 16 18 18 19 20 22 23 25 28 32 31 31 32 31 29 30 28 29 29 26 25 22
10 13 16 17 17 16 17 14 16 11 18 12 14 14 14 16 17 16 17 17 17 16 18 19 18 15 14 13 14 17 19 22 23 23 25 27 30 31 31 32 32 32 31 30 31 30 29 27 25
15 16 16 17 15 14 11 16 19 13 11 9 10 9 13 16 18 20 19 19 15 20 21 22 21 20 18 18 18 20 22 23 24 24 26 29 31 32 32 33 35 33 34 33 32 32 31 30 27
13 13 14 7 8 9 9 13 6 11 10 11 11 11 10 9 12 14 19 23 21 20 24 28 26 26 24 24 24 25 25 27 28 28 28 30 32 34 35 35 34 36 37 34 34 32 32 30 29
13 12 8 10 6 7 11 11 9 13 16 18 16 13 13 12 11 12 23 24 22 22 25 27 26 30 31 31 32 30 30 30 31 34 34 31 35 36 36 37 35 36 34 35 35 34 33 33 31
9 12 13 13 7 7 13 20 22 18 17 18 17 15 18 13 14 24 25 25 24 25 25 27 28 29 32 34 35 36 36 33 36 37 38 39 39 39 38 37 38 37 38 37 36 36 35 34 33
14 14 15 14 15 17 18 20 21 21 20 18 18 15 14 9 8 22 24 24 24 24 24 30 29 33 35 37 36 38 40 40 39 40 42 44 40 42 40 41 43 39 41 39 39 38 37 37 36
9 14 17 16 12 16 22 25 29 27 24 22 20 17 15 9 11 21 19 17 15 14 16 19 19 23 25 28 30 34 36 40 42 43 45 44 44 44 44 44 45 42 44 44 42 40 40 39 38
13 15 18 18 20 23 25 22 14 7 11 16 18 18 12 15 17 17 13 9 12 15 17 20 24 25 27 27 28 30 32 34 38 42 44 46 46 47 48 48 48 48 48 50 46 42 43 42 39
17 14 15 19 21 22 20 30 21 18 15 11 8 8 12 18 12 13 16 18 23 20 19 22 21 21 24 27 29 32 34 35 39 41 45 47 46 50 53 55 52 54 53 54 48 46 45 43 38
19 17 18 22 24 27 23 23 23 14 17 19 13 12 12 13 13 16 23 25 22 22 24 20 22 24 26 30 34 36 38 39 39 41 46 48 50 55 50 58 57 63 57 50 46 45 42 39 36
17 22 25 25 23 18 20 14 10 10 16 17 12 11 18 21 22 26 27 22 22 26 23 23 26 31 33 38 34 38 43 43 38 39 42 47 51 50 56 55 54 56 57 54 46 44 42 38 35
17 16 15 10 12 15 18 11 19 17 12 14 12 12 17 21 28 24 20 22 28 28 28 31 34 37 41 34 34 37 39 42 41 36 39 41 40 41 43 40 44 48 51 53 56 48 42 39 34
15 16 15 17 13 19 29 18 14 8 18 22 18 16 21 14 16 15 19 23 27 31 33 35 39 43 44 37 34 32 34 35 31 29 26 25 31 35 36 36 38 42 47 50 54 50 41 36 34
13 17 19 26 30 27 23 27 22 16 10 12 12 17 12 11 13 15 19 24 26 27 36 44 46 42 35 31 30 28 26 27 28 28 30 33 34 32 35 32 32 35 41 44 46 41 36 26 25
25 19 17 15 8 14 16 22 20 6 11 11 10 10 11 13 18 25 29 32 31 30 27 36 35 28 26 27 28 29 32 31 29 26 24 24 26 21 21 24 26 26 31 37 41 41 30 29 25
20 24 24 26 30 17 19 19 5 6 5 7 8 10 16 22 31 34 31 28 28 28 25 33 33 28 24 25 27 29 29 29 25 26 25 26 25 23 20 17 17 21 25 28 29 28 25 18 23
27 29 29 29 23 32 27 45 27 19 16 15 15 19 30 32 28 28 27 28 27 32 34 31 32 26 27 25 25 27 31 45 25 32 30 24 18 26 21 19 19 21 24 24 25 22 22 26 27
Wind_Direction
249 232 145 134 220 233 244 182 160 186 170 302 168 134 159 15 356 302 350 323 308 298 301 261 235 224 220 211 208 206 206 200 202 243 245 234 234 238 256 312 15 19 22 28 39 29 11 19 28
151 118 114 174 233 232 155 156 192 266 253 227 153 102 71 22 2 338 333 325 301 291 292 271 246 230 222 215 210 211 211 240 225 237 258 241 237 242 250 259 269 293 336 14 27 12 5 7 20
88 107 116 247 250 308 64 143 269 285 278 223 183 181 167 240 315 331 338 335 321 308 295 283 249 234 224 215 209 213 217 233 238 238 256 267 260 250 250 243 242 245 259 291 332 345 350 355 359
91 64 0 213 242 310 330 319 316 288 307 251 192 225 221 293 319 332 337 348 337 316 314 305 266 245 234 226 220 218 234 266 234 241 252 258 256 258 253 250 247 246 247 248 263 291 314 330 334
79 195 235 243 188 226 344 280 338 18 245 173 161 213 240 278 303 320 342 353 327 323 327 296 247 235 227 230 233 236 251 245 232 250 255 254 263 262 260 254 253 252 250 249 251 261 278 293 308
222 252 245 248 146 230 243 14 97 328 132 169 165 217 239 266 297 317 342 343 326 323 325 306 232 222 224 229 233 231 239 230 234 246 244 253 257 263 266 260 257 257 255 254 254 259 265 272 278
213 257 282 279 257 240 214 288 238 225 234 187 211 246 265 275 295 319 322 331 320 318 323 313 280 252 241 243 244 243 240 229 230 242 250 252 256 261 263 261 259 257 256 255 256 260 263 268 272
228 259 263 249 237 229 234 243 245 238 235 248 226 301 142 279 290 301 297 295 308 300 297 293 285 264 258 257 254 253 249 240 238 244 251 256 256 261 261 260 263 263 260 259 260 261 263 267 272
266 247 257 250 249 246 252 246 281 252 241 258 245 250 256 270 279 281 276 273 276 274 273 280 281 276 267 261 259 257 253 251 245 245 251 255 257 260 261 265 263 263 259 257 263 263 263 264 269
226 252 289 252 244 243 272 268 250 278 260 268 270 275 273 272 284 281 274 252 254 258 254 264 269 271 268 265 269 264 267 260 251 247 248 251 255 257 262 262 262 263 260 253 257 257 256 258 262
251 246 281 269 257 254 250 255 268 267 259 262 264 270 277 278 283 283 274 247 246 245 248 253 263 266 263 264 264 267 268 267 264 254 247 249 255 258 261 262 263 265 267 263 247 244 247 251 255
254 260 257 250 262 262 265 271 267 258 260 259 259 251 244 274 271 275 283 246 242 244 242 251 252 256 258 263 267 265 265 263 264 259 253 251 254 257 261 264 265 264 265 266 254 244 242 245 248
263 260 260 264 264 268 274 271 274 267 259 255 264 269 264 251 266 257 264 268 251 245 244 247 246 256 260 261 261 263 266 269 267 264 258 254 258 261 264 266 266 263 264 263 245 242 243 245 248
273 258 265 265 265 268 268 274 261 279 251 292 288 282 268 251 246 244 251 266 257 248 239 243 242 247 253 258 266 269 268 265 263 262 261 259 260 262 262 265 266 264 260 258 251 245 243 244 247
267 273 281 271 265 264 258 272 253 241 276 284 303 291 259 248 245 242 248 249 259 250 244 243 248 250 253 256 260 264 264 264 264 265 263 261 261 263 266 267 265 259 256 252 243 241 241 243 245
276 278 283 140 239 257 266 286 272 243 260 281 273 288 291 266 245 243 247 250 253 261 255 251 245 253 254 257 257 259 261 262 261 258 260 264 264 264 264 264 261 255 256 248 243 240 243 244 244
245 285 272 303 235 270 255 272 254 277 280 283 273 272 271 262 259 254 248 253 258 260 259 259 254 252 256 259 263 262 260 260 262 262 258 260 261 260 262 261 254 250 249 240 239 238 241 244 245
322 293 285 286 283 297 277 270 281 280 271 267 265 255 260 247 232 252 260 258 257 257 263 263 265 264 260 263 266 269 268 265 265 264 262 261 260 260 259 258 255 249 242 239 239 240 241 243 245
280 280 282 284 283 280 279 280 275 275 266 263 266 276 237 232 252 260 258 255 255 258 262 269 261 264 266 267 271 269 269 267 263 263 263 261 260 261 259 257 251 249 245 241 239 240 240 240 238
281 285 287 291 296 293 293 288 285 276 263 259 247 232 224 223 237 257 263 258 255 261 265 274 275 275 276 277 275 278 277 271 266 262 261 260 260 260 256 255 253 247 242 240 238 236 235 234 236
294 290 294 292 297 296 295 292 283 246 240 237 217 207 218 234 261 268 232 242 281 291 276 274 278 279 278 280 284 286 285 285 275 269 265 262 260 256 253 252 250 248 244 241 238 234 233 233 234
280 297 282 292 297 291 295 293 276 274 259 242 224 205 238 267 265 251 254 273 295 292 288 288 282 280 285 287 289 286 283 285 286 269 271 269 261 261 259 255 254 250 242 240 236 231 227 228 228
278 282 284 288 286 291 282 270 266 248 235 233 217 233 271 266 257 267 285 294 293 301 303 291 282 287 288 283 283 284 283 285 285 284 268 264 265 264 251 265 249 250 231 228 228 226 223 223 222
278 291 291 284 275 270 283 269 283 262 229 191 210 218 242 263 260 278 292 296 296 305 294 284 286 286 284 294 288 283 282 284 281 273 271 264 268 261 265 259 251 253 255 230 217 220 220 215 217
271 295 295 281 251 263 288 268 272 274 223 203 223 221 257 267 285 294 286 287 293 292 288 289 294 296 302 302 291 292 284 275 281 276 268 270 275 270 264 262 259 261 257 241 226 216 211 212 212
269 269 265 292 296 296 297 280 308 228 231 246 250 240 268 277 288 280 290 297 292 284 283 289 298 303 304 297 289 287 276 272 273 274 263 267 281 273 267 262 256 251 243 233 222 210 203 205 209
284 249 268 275 275 279 273 273 262 251 214 223 224 248 246 263 281 291 298 297 294 288 300 299 303 304 297 282 281 278 270 272 273 271 272 275 271 269 263 252 247 246 241 226 217 210 205 200 210
250 261 257 242 273 264 268 282 299 214 239 234 226 240 251 274 283 291 295 295 293 292 293 287 301 302 294 287 287 283 278 274 268 263 264 265 266 274 265 261 252 239 225 218 216 209 197 204 206
258 248 245 257 261 274 283 269 281 304 271 232 250 263 287 294 291 289 291 292 293 292 288 299 296 295 290 292 289 283 284 255 249 258 261 262 280 287 261 261 237 219 215 217 214 208 205 209 218
253 251 253 241 251 251 260 267 271 273 267 265 275 290 293 293 294 296 295 296 298 293 298 299 291 286 282 286 287 283 295 287 292 255 272 261 274 260 253 263 261 245 226 211 210 207 213 218 221